Year,Month,Day,Hour,Minute,Value (Times are PST for temperature in C)
2018,06,24,00,00,14.80
2018,06,24,00,01,14.80
2018,06,24,00,02,14.80
2018,06,24,00,03,14.70
2018,06,24,00,04,14.70
2018,06,24,00,05,14.70
2018,06,24,00,06,14.60
2018,06,24,00,07,14.60
2018,06,24,00,08,14.60
2018,06,24,00,09,14.50
2018,06,24,00,10,14.50
2018,06,24,00,11,14.40
2018,06,24,00,12,14.40
2018,06,24,00,13,14.40
2018,06,24,00,14,14.40
2018,06,24,00,15,14.30
2018,06,24,00,16,14.20
2018,06,24,00,17,14.10
2018,06,24,00,18,14.00
2018,06,24,00,19,14.00
2018,06,24,00,20,13.90
2018,06,24,00,21,13.80
2018,06,24,00,22,13.80
2018,06,24,00,23,13.80
2018,06,24,00,24,13.80
2018,06,24,00,25,13.80
2018,06,24,00,26,13.80
2018,06,24,00,27,13.80
2018,06,24,00,28,13.80
2018,06,24,00,29,13.80
2018,06,24,00,30,13.80
2018,06,24,00,31,13.70
2018,06,24,00,32,13.70
2018,06,24,00,33,13.70
2018,06,24,00,34,13.70
2018,06,24,00,35,13.70
2018,06,24,00,36,13.70
2018,06,24,00,37,13.60
2018,06,24,00,38,13.60
2018,06,24,00,39,13.50
2018,06,24,00,40,13.50
2018,06,24,00,41,13.40
2018,06,24,00,42,13.40
2018,06,24,00,43,13.40
2018,06,24,00,44,13.30
2018,06,24,00,45,13.30
2018,06,24,00,46,13.30
2018,06,24,00,47,13.30
2018,06,24,00,48,13.20
2018,06,24,00,49,13.20
2018,06,24,00,50,13.20
2018,06,24,00,51,13.20
2018,06,24,00,52,13.20
2018,06,24,00,53,13.20
2018,06,24,00,54,13.20
2018,06,24,00,55,13.10
2018,06,24,00,56,13.10
2018,06,24,00,57,13.10
2018,06,24,00,58,13.00
2018,06,24,00,59,13.00
2018,06,24,01,00,13.00
2018,06,24,01,01,13.10
2018,06,24,01,02,13.10
2018,06,24,01,03,13.10
2018,06,24,01,04,13.10
2018,06,24,01,05,13.10
2018,06,24,01,06,13.10
2018,06,24,01,07,13.20
2018,06,24,01,08,13.20
2018,06,24,01,09,13.20
2018,06,24,01,10,13.20
2018,06,24,01,11,13.20
2018,06,24,01,12,13.20
2018,06,24,01,13,13.20
2018,06,24,01,14,13.20
2018,06,24,01,15,13.20
2018,06,24,01,16,13.20
2018,06,24,01,17,13.20
2018,06,24,01,18,13.20
2018,06,24,01,19,13.20
2018,06,24,01,20,13.20
2018,06,24,01,21,13.20
2018,06,24,01,22,13.20
2018,06,24,01,23,13.20
2018,06,24,01,24,13.20
2018,06,24,01,25,13.20
2018,06,24,01,26,13.10
2018,06,24,01,27,13.00
2018,06,24,01,28,13.00
2018,06,24,01,29,12.90
2018,06,24,01,30,12.70
2018,06,24,01,31,12.60
2018,06,24,01,32,12.60
2018,06,24,01,33,12.50
2018,06,24,01,34,12.50
2018,06,24,01,35,12.50
2018,06,24,01,36,12.50
2018,06,24,01,37,12.60
2018,06,24,01,38,12.60
2018,06,24,01,39,12.60
2018,06,24,01,40,12.60
2018,06,24,01,41,12.60
2018,06,24,01,42,12.60
2018,06,24,01,43,12.60
2018,06,24,01,44,12.60
2018,06,24,01,45,12.60
2018,06,24,01,46,12.70
2018,06,24,01,47,12.70
2018,06,24,01,48,12.70
2018,06,24,01,49,12.70
2018,06,24,01,50,12.70
2018,06,24,01,51,12.70
2018,06,24,01,52,12.70
2018,06,24,01,53,12.70
2018,06,24,01,54,12.70
2018,06,24,01,55,12.70
2018,06,24,01,56,12.70
2018,06,24,01,57,12.60
2018,06,24,01,58,12.40
2018,06,24,01,59,12.30
2018,06,24,02,00,12.30
2018,06,24,02,01,12.20
2018,06,24,02,02,12.20
2018,06,24,02,03,12.10
2018,06,24,02,04,12.10
2018,06,24,02,05,12.00
2018,06,24,02,06,12.00
2018,06,24,02,07,12.00
2018,06,24,02,08,12.10
2018,06,24,02,09,12.10
2018,06,24,02,10,12.10
2018,06,24,02,11,12.10
2018,06,24,02,12,12.10
2018,06,24,02,13,12.10
2018,06,24,02,14,12.10
2018,06,24,02,15,12.10
2018,06,24,02,16,12.10
2018,06,24,02,17,12.10
2018,06,24,02,18,12.10
2018,06,24,02,19,12.20
2018,06,24,02,20,12.20
2018,06,24,02,21,12.20
2018,06,24,02,22,12.20
2018,06,24,02,23,12.10
2018,06,24,02,24,12.10
2018,06,24,02,25,12.10
2018,06,24,02,26,12.10
2018,06,24,02,27,12.10
2018,06,24,02,28,12.10
2018,06,24,02,29,12.00
2018,06,24,02,30,12.00
2018,06,24,02,31,12.00
2018,06,24,02,32,12.00
2018,06,24,02,33,12.00
2018,06,24,02,34,12.00
2018,06,24,02,35,12.00
2018,06,24,02,36,12.00
2018,06,24,02,37,11.90
2018,06,24,02,38,11.90
2018,06,24,02,39,11.80
2018,06,24,02,40,11.80
2018,06,24,02,41,11.70
2018,06,24,02,42,11.60
2018,06,24,02,43,11.50
2018,06,24,02,44,11.50
2018,06,24,02,45,11.60
2018,06,24,02,46,11.60
2018,06,24,02,47,11.60
2018,06,24,02,48,11.60
2018,06,24,02,49,11.70
2018,06,24,02,50,11.70
2018,06,24,02,51,11.80
2018,06,24,02,52,11.80
2018,06,24,02,53,11.80
2018,06,24,02,54,11.80
2018,06,24,02,55,11.90
2018,06,24,02,56,11.90
2018,06,24,02,57,11.90
2018,06,24,02,58,11.90
2018,06,24,02,59,11.90
2018,06,24,03,00,12.00
2018,06,24,03,01,12.00
2018,06,24,03,02,12.10
2018,06,24,03,03,12.10
2018,06,24,03,04,12.20
2018,06,24,03,05,12.30
2018,06,24,03,06,12.30
2018,06,24,03,07,12.30
2018,06,24,03,08,12.30
2018,06,24,03,09,12.30
2018,06,24,03,10,12.40
2018,06,24,03,11,12.40
2018,06,24,03,12,12.50
2018,06,24,03,13,12.50
2018,06,24,03,14,12.60
2018,06,24,03,15,12.60
2018,06,24,03,16,12.60
2018,06,24,03,17,12.60
2018,06,24,03,18,12.60
2018,06,24,03,19,12.60
2018,06,24,03,20,12.60
2018,06,24,03,21,12.50
2018,06,24,03,22,12.30
2018,06,24,03,23,12.10
2018,06,24,03,24,11.80
2018,06,24,03,25,11.70
2018,06,24,03,26,11.40
2018,06,24,03,27,11.30
2018,06,24,03,28,11.10
2018,06,24,03,29,11.00
2018,06,24,03,30,11.10
2018,06,24,03,31,11.00
2018,06,24,03,32,11.10
2018,06,24,03,33,11.10
2018,06,24,03,34,11.20
2018,06,24,03,35,11.30
2018,06,24,03,36,11.30
2018,06,24,03,37,11.40
2018,06,24,03,38,11.40
2018,06,24,03,39,11.50
2018,06,24,03,40,11.50
2018,06,24,03,41,11.50
2018,06,24,03,42,11.60
2018,06,24,03,43,11.60
2018,06,24,03,44,11.60
2018,06,24,03,45,11.70
2018,06,24,03,46,11.70
2018,06,24,03,47,11.70
2018,06,24,03,48,11.70
2018,06,24,03,49,11.80
2018,06,24,03,50,11.80
2018,06,24,03,51,11.80
2018,06,24,03,52,11.90
2018,06,24,03,53,11.90
2018,06,24,03,54,11.90
2018,06,24,03,55,12.00
2018,06,24,03,56,12.00
2018,06,24,03,57,12.00
2018,06,24,03,58,12.10
2018,06,24,03,59,12.10
2018,06,24,04,00,12.10
2018,06,24,04,01,12.10
2018,06,24,04,02,12.00
2018,06,24,04,03,12.00
2018,06,24,04,04,12.00
2018,06,24,04,05,12.00
2018,06,24,04,06,12.00
2018,06,24,04,07,12.00
2018,06,24,04,08,11.90
2018,06,24,04,09,11.90
2018,06,24,04,10,11.90
2018,06,24,04,11,11.90
2018,06,24,04,12,11.80
2018,06,24,04,13,11.80
2018,06,24,04,14,11.80
2018,06,24,04,15,11.90
2018,06,24,04,16,11.90
2018,06,24,04,17,11.90
2018,06,24,04,18,11.90
2018,06,24,04,19,11.90
2018,06,24,04,20,11.90
2018,06,24,04,21,11.90
2018,06,24,04,22,12.00
2018,06,24,04,23,12.00
2018,06,24,04,24,12.00
2018,06,24,04,25,12.00
2018,06,24,04,26,12.00
2018,06,24,04,27,12.00
2018,06,24,04,28,12.00
2018,06,24,04,29,11.90
2018,06,24,04,30,11.90
2018,06,24,04,31,11.90
2018,06,24,04,32,11.90
2018,06,24,04,33,11.90
2018,06,24,04,34,12.00
2018,06,24,04,35,12.00
2018,06,24,04,36,12.10
2018,06,24,04,37,12.20
2018,06,24,04,38,12.20
2018,06,24,04,39,12.20
2018,06,24,04,40,12.20
2018,06,24,04,41,12.20
2018,06,24,04,42,12.20
2018,06,24,04,43,12.30
2018,06,24,04,44,12.30
2018,06,24,04,45,12.30
2018,06,24,04,46,12.30
2018,06,24,04,47,12.30
2018,06,24,04,48,12.40
2018,06,24,04,49,12.40
2018,06,24,04,50,12.40
2018,06,24,04,51,12.50
2018,06,24,04,52,12.50
2018,06,24,04,53,12.50
2018,06,24,04,54,12.60
2018,06,24,04,55,12.60
2018,06,24,04,56,12.60
2018,06,24,04,57,12.60
2018,06,24,04,58,12.60
2018,06,24,04,59,12.60
2018,06,24,05,00,12.60
2018,06,24,05,01,12.70
2018,06,24,05,02,12.70
2018,06,24,05,03,12.70
2018,06,24,05,04,12.70
2018,06,24,05,05,12.70
2018,06,24,05,06,12.70
2018,06,24,05,07,12.70
2018,06,24,05,08,12.70
2018,06,24,05,09,12.60
2018,06,24,05,10,12.60
2018,06,24,05,11,12.50
2018,06,24,05,12,12.40
2018,06,24,05,13,12.40
2018,06,24,05,14,12.40
2018,06,24,05,15,12.40
2018,06,24,05,16,12.40
2018,06,24,05,17,12.40
2018,06,24,05,18,12.40
2018,06,24,05,19,12.40
2018,06,24,05,20,12.40
2018,06,24,05,21,12.40
2018,06,24,05,22,12.50
2018,06,24,05,23,12.50
2018,06,24,05,24,12.50
2018,06,24,05,25,12.50
2018,06,24,05,26,12.60
2018,06,24,05,27,12.60
2018,06,24,05,28,12.60
2018,06,24,05,29,12.60
2018,06,24,05,30,12.70
2018,06,24,05,31,12.70
2018,06,24,05,32,12.70
2018,06,24,05,33,12.70
2018,06,24,05,34,12.70
2018,06,24,05,35,12.70
2018,06,24,05,36,12.70
2018,06,24,05,37,12.70
2018,06,24,05,38,12.70
2018,06,24,05,39,12.70
2018,06,24,05,40,12.70
2018,06,24,05,41,12.80
2018,06,24,05,42,12.80
2018,06,24,05,43,12.80
2018,06,24,05,44,12.80
2018,06,24,05,45,12.80
2018,06,24,05,46,12.70
2018,06,24,05,47,12.70
2018,06,24,05,48,12.70
2018,06,24,05,49,12.60
2018,06,24,05,50,12.60
2018,06,24,05,51,12.60
2018,06,24,05,52,12.60
2018,06,24,05,53,12.60
2018,06,24,05,54,12.60
2018,06,24,05,55,12.60
2018,06,24,05,56,12.60
2018,06,24,05,57,12.60
2018,06,24,05,58,12.60
2018,06,24,05,59,12.60
2018,06,24,06,00,12.60
2018,06,24,06,01,12.60
2018,06,24,06,02,12.60
2018,06,24,06,03,12.60
2018,06,24,06,04,12.60
2018,06,24,06,05,12.60
2018,06,24,06,06,12.70
2018,06,24,06,07,12.70
2018,06,24,06,08,12.70
2018,06,24,06,09,12.70
2018,06,24,06,10,12.70
2018,06,24,06,11,12.70
2018,06,24,06,12,12.70
2018,06,24,06,13,12.80
2018,06,24,06,14,12.80
2018,06,24,06,15,12.80
2018,06,24,06,16,12.80
2018,06,24,06,17,12.90
2018,06,24,06,18,12.90
2018,06,24,06,19,13.00
2018,06,24,06,20,13.00
2018,06,24,06,21,13.10
2018,06,24,06,22,13.10
2018,06,24,06,23,13.10
2018,06,24,06,24,13.10
2018,06,24,06,25,13.20
2018,06,24,06,26,13.20
2018,06,24,06,27,13.20
2018,06,24,06,28,13.20
2018,06,24,06,29,13.20
2018,06,24,06,30,13.30
2018,06,24,06,31,13.30
2018,06,24,06,32,13.30
2018,06,24,06,33,13.40
2018,06,24,06,34,13.40
2018,06,24,06,35,13.50
2018,06,24,06,36,13.50
2018,06,24,06,37,13.60
2018,06,24,06,38,13.60
2018,06,24,06,39,13.70
2018,06,24,06,40,13.70
2018,06,24,06,41,13.70
2018,06,24,06,42,13.80
2018,06,24,06,43,13.80
2018,06,24,06,44,13.90
2018,06,24,06,45,13.90
2018,06,24,06,46,13.90
2018,06,24,06,47,14.00
2018,06,24,06,48,14.10
2018,06,24,06,49,14.10
2018,06,24,06,50,14.20
2018,06,24,06,51,14.20
2018,06,24,06,52,14.30
2018,06,24,06,53,14.30
2018,06,24,06,54,14.30
2018,06,24,06,55,14.30
2018,06,24,06,56,14.30
2018,06,24,06,57,14.30
2018,06,24,06,58,14.30
2018,06,24,06,59,14.30
2018,06,24,07,00,14.30
2018,06,24,07,01,14.30
2018,06,24,07,02,14.30
2018,06,24,07,03,14.30
2018,06,24,07,04,14.30
2018,06,24,07,05,14.30
2018,06,24,07,06,14.30
2018,06,24,07,07,14.30
2018,06,24,07,08,14.30
2018,06,24,07,09,14.30
2018,06,24,07,10,14.30
2018,06,24,07,11,14.30
2018,06,24,07,12,14.30
2018,06,24,07,13,14.30
2018,06,24,07,14,14.30
2018,06,24,07,15,14.30
2018,06,24,07,16,14.40
2018,06,24,07,17,14.40
2018,06,24,07,18,14.40
2018,06,24,07,19,14.40
2018,06,24,07,20,14.40
2018,06,24,07,21,14.40
2018,06,24,07,22,14.40
2018,06,24,07,23,14.40
2018,06,24,07,24,14.40
2018,06,24,07,25,14.40
2018,06,24,07,26,14.50
2018,06,24,07,27,14.50
2018,06,24,07,28,14.50
2018,06,24,07,29,14.60
2018,06,24,07,30,14.60
2018,06,24,07,31,14.60
2018,06,24,07,32,14.60
2018,06,24,07,33,14.60
2018,06,24,07,34,14.70
2018,06,24,07,35,14.70
2018,06,24,07,36,14.70
2018,06,24,07,37,14.70
2018,06,24,07,38,14.80
2018,06,24,07,39,14.80
2018,06,24,07,40,14.80
2018,06,24,07,41,14.80
2018,06,24,07,42,14.80
2018,06,24,07,43,14.80
2018,06,24,07,44,14.80
2018,06,24,07,45,14.90
2018,06,24,07,46,14.90
2018,06,24,07,47,14.90
2018,06,24,07,48,14.90
2018,06,24,07,49,14.90
2018,06,24,07,50,14.90
2018,06,24,07,51,15.00
2018,06,24,07,52,15.00
2018,06,24,07,53,15.10
2018,06,24,07,54,15.10
2018,06,24,07,55,15.10
2018,06,24,07,56,15.10
2018,06,24,07,57,15.10
2018,06,24,07,58,15.10
2018,06,24,07,59,15.20
2018,06,24,08,00,15.20
2018,06,24,08,01,15.20
2018,06,24,08,02,15.20
2018,06,24,08,03,15.20
2018,06,24,08,04,15.30
2018,06,24,08,05,15.30
2018,06,24,08,06,15.30
2018,06,24,08,07,15.30
2018,06,24,08,08,15.40
2018,06,24,08,09,15.40
2018,06,24,08,10,15.40
2018,06,24,08,11,15.40
2018,06,24,08,12,15.50
2018,06,24,08,13,15.50
2018,06,24,08,14,15.50
2018,06,24,08,15,15.50
2018,06,24,08,16,15.60
2018,06,24,08,17,15.60
2018,06,24,08,18,15.60
2018,06,24,08,19,15.60
2018,06,24,08,20,15.60
2018,06,24,08,21,15.70
2018,06,24,08,22,15.70
2018,06,24,08,23,15.80
2018,06,24,08,24,15.80
2018,06,24,08,25,15.90
2018,06,24,08,26,15.90
2018,06,24,08,27,15.90
2018,06,24,08,28,16.00
2018,06,24,08,29,16.00
2018,06,24,08,30,16.00
2018,06,24,08,31,16.10
2018,06,24,08,32,16.10
2018,06,24,08,33,16.10
2018,06,24,08,34,16.10
2018,06,24,08,35,16.20
2018,06,24,08,36,16.20
2018,06,24,08,37,16.20
2018,06,24,08,38,16.20
2018,06,24,08,39,16.20
2018,06,24,08,40,16.20
2018,06,24,08,41,16.20
2018,06,24,08,42,16.20
2018,06,24,08,43,16.30
2018,06,24,08,44,16.30
2018,06,24,08,45,16.30
2018,06,24,08,46,16.30
2018,06,24,08,47,16.30
2018,06,24,08,48,16.30
2018,06,24,08,49,16.30
2018,06,24,08,50,16.30
2018,06,24,08,51,16.30
2018,06,24,08,52,16.30
2018,06,24,08,53,16.40
2018,06,24,08,54,16.40
2018,06,24,08,55,16.40
2018,06,24,08,56,16.40
2018,06,24,08,57,16.40
2018,06,24,08,58,16.50
2018,06,24,08,59,16.50
2018,06,24,09,00,16.50
2018,06,24,09,01,16.50
2018,06,24,09,02,16.50
2018,06,24,09,03,16.60
2018,06,24,09,04,16.60
2018,06,24,09,05,16.60
2018,06,24,09,06,16.60
2018,06,24,09,07,16.70
2018,06,24,09,08,16.70
2018,06,24,09,09,16.70
2018,06,24,09,10,16.80
2018,06,24,09,11,16.80
2018,06,24,09,12,16.80
2018,06,24,09,13,16.80
2018,06,24,09,14,16.80
2018,06,24,09,15,16.80
2018,06,24,09,16,16.90
2018,06,24,09,17,16.90
2018,06,24,09,18,16.90
2018,06,24,09,19,17.00
2018,06,24,09,20,17.00
2018,06,24,09,21,17.10
2018,06,24,09,22,17.10
2018,06,24,09,23,17.10
2018,06,24,09,24,17.20
2018,06,24,09,25,17.20
2018,06,24,09,26,17.20
2018,06,24,09,27,17.20
2018,06,24,09,28,17.20
2018,06,24,09,29,17.20
2018,06,24,09,30,17.20
2018,06,24,09,31,17.20
2018,06,24,09,32,17.20
2018,06,24,09,33,17.20
2018,06,24,09,34,17.30
2018,06,24,09,35,17.30
2018,06,24,09,36,17.30
2018,06,24,09,37,17.30
2018,06,24,09,38,17.30
2018,06,24,09,39,17.30
2018,06,24,09,40,17.30
2018,06,24,09,41,17.30
2018,06,24,09,42,17.30
2018,06,24,09,43,17.30
2018,06,24,09,44,17.30
2018,06,24,09,45,17.30
2018,06,24,09,46,17.30
2018,06,24,09,47,17.30
2018,06,24,09,48,17.30
2018,06,24,09,49,17.40
2018,06,24,09,50,17.40
2018,06,24,09,51,17.40
2018,06,24,09,52,17.40
2018,06,24,09,53,17.40
2018,06,24,09,54,17.40
2018,06,24,09,55,17.40
2018,06,24,09,56,17.40
2018,06,24,09,57,17.40
2018,06,24,09,58,17.40
2018,06,24,09,59,17.40
2018,06,24,10,00,17.40
2018,06,24,10,01,17.40
2018,06,24,10,02,17.30
2018,06,24,10,03,17.30
2018,06,24,10,04,17.30
2018,06,24,10,05,17.30
2018,06,24,10,06,17.30
2018,06,24,10,07,17.30
2018,06,24,10,08,17.30
2018,06,24,10,09,17.20
2018,06,24,10,10,17.20
2018,06,24,10,11,17.20
2018,06,24,10,12,17.20
2018,06,24,10,13,17.20
2018,06,24,10,14,17.20
2018,06,24,10,15,17.20
2018,06,24,10,16,17.10
2018,06,24,10,17,17.10
2018,06,24,10,18,17.00
2018,06,24,10,19,17.00
2018,06,24,10,20,16.90
2018,06,24,10,21,16.80
2018,06,24,10,22,16.80
2018,06,24,10,23,16.80
2018,06,24,10,24,16.70
2018,06,24,10,25,16.80
2018,06,24,10,26,16.80
2018,06,24,10,27,16.80
2018,06,24,10,28,16.80
2018,06,24,10,29,16.80
2018,06,24,10,30,16.80
2018,06,24,10,31,16.80
2018,06,24,10,32,16.80
2018,06,24,10,33,16.80
2018,06,24,10,34,16.80
2018,06,24,10,35,16.70
2018,06,24,10,36,16.70
2018,06,24,10,37,16.60
2018,06,24,10,38,16.60
2018,06,24,10,39,16.60
2018,06,24,10,40,16.60
2018,06,24,10,41,16.50
2018,06,24,10,42,16.50
2018,06,24,10,43,16.50
2018,06,24,10,44,16.50
2018,06,24,10,45,16.50
2018,06,24,10,46,16.40
2018,06,24,10,47,16.40
2018,06,24,10,48,16.40
2018,06,24,10,49,16.40
2018,06,24,10,50,16.40
2018,06,24,10,51,16.40
2018,06,24,10,52,16.40
2018,06,24,10,53,16.40
2018,06,24,10,54,16.40
2018,06,24,10,55,16.40
2018,06,24,10,56,16.30
2018,06,24,10,57,16.20
2018,06,24,10,58,16.20
2018,06,24,10,59,16.20
2018,06,24,11,00,16.10
2018,06,24,11,01,16.10
2018,06,24,11,02,16.10
2018,06,24,11,03,16.10
2018,06,24,11,04,16.10
2018,06,24,11,05,16.10
2018,06,24,11,06,16.10
2018,06,24,11,07,16.10
2018,06,24,11,08,16.10
2018,06,24,11,09,16.20
2018,06,24,11,10,16.20
2018,06,24,11,11,16.20
2018,06,24,11,12,16.20
2018,06,24,11,13,16.30
2018,06,24,11,14,16.30
2018,06,24,11,15,16.30
2018,06,24,11,16,16.30
2018,06,24,11,17,16.20
2018,06,24,11,18,16.20
2018,06,24,11,19,16.10
2018,06,24,11,20,16.10
2018,06,24,11,21,16.10
2018,06,24,11,22,16.10
2018,06,24,11,23,16.10
2018,06,24,11,24,16.10
2018,06,24,11,25,16.10
2018,06,24,11,26,16.00
2018,06,24,11,27,16.00
2018,06,24,11,28,16.00
2018,06,24,11,29,16.00
2018,06,24,11,30,16.00
2018,06,24,11,31,16.00
2018,06,24,11,32,16.00
2018,06,24,11,33,15.90
2018,06,24,11,34,15.90
2018,06,24,11,35,15.90
2018,06,24,11,36,15.90
2018,06,24,11,37,15.90
2018,06,24,11,38,15.90
2018,06,24,11,39,15.90
2018,06,24,11,40,15.90
2018,06,24,11,41,15.80
2018,06,24,11,42,15.80
2018,06,24,11,43,15.80
2018,06,24,11,44,15.90
2018,06,24,11,45,15.90
2018,06,24,11,46,15.80
2018,06,24,11,47,15.90
2018,06,24,11,48,15.90
2018,06,24,11,49,15.90
2018,06,24,11,50,16.00
2018,06,24,11,51,16.00
2018,06,24,11,52,16.10
2018,06,24,11,53,16.10
2018,06,24,11,54,16.00
2018,06,24,11,55,16.00
2018,06,24,11,56,16.00
2018,06,24,11,57,16.00
2018,06,24,11,58,15.90
2018,06,24,11,59,15.90
2018,06,24,12,00,15.90
2018,06,24,12,01,15.90
2018,06,24,12,02,15.90
2018,06,24,12,03,15.90
2018,06,24,12,04,15.80
2018,06,24,12,05,15.70
2018,06,24,12,06,15.70
2018,06,24,12,07,15.70
2018,06,24,12,08,15.70
2018,06,24,12,09,15.70
2018,06,24,12,10,15.70
2018,06,24,12,11,15.70
2018,06,24,12,12,15.70
2018,06,24,12,13,15.60
2018,06,24,12,14,15.50
2018,06,24,12,15,15.60
2018,06,24,12,16,15.60
2018,06,24,12,17,15.70
2018,06,24,12,18,15.70
2018,06,24,12,19,15.70
2018,06,24,12,20,15.70
2018,06,24,12,21,15.80
2018,06,24,12,22,15.70
2018,06,24,12,23,15.70
2018,06,24,12,24,15.70
2018,06,24,12,25,15.70
2018,06,24,12,26,15.70
2018,06,24,12,27,15.70
2018,06,24,12,28,15.70
2018,06,24,12,29,15.70
2018,06,24,12,30,15.80
2018,06,24,12,31,15.80
2018,06,24,12,32,15.80
2018,06,24,12,33,15.80
2018,06,24,12,34,15.80
2018,06,24,12,35,15.80
2018,06,24,12,36,15.80
2018,06,24,12,37,15.80
2018,06,24,12,38,15.80
2018,06,24,12,39,15.90
2018,06,24,12,40,15.90
2018,06,24,12,41,15.90
2018,06,24,12,42,15.90
2018,06,24,12,43,15.90
2018,06,24,12,44,15.90
2018,06,24,12,45,15.90
2018,06,24,12,46,15.80
2018,06,24,12,47,15.80
2018,06,24,12,48,15.70
2018,06,24,12,49,15.70
2018,06,24,12,50,15.70
2018,06,24,12,51,15.70
2018,06,24,12,52,15.60
2018,06,24,12,53,15.60
2018,06,24,12,54,15.50
2018,06,24,12,55,15.50
2018,06,24,12,56,15.50
2018,06,24,12,57,15.40
2018,06,24,12,58,15.40
2018,06,24,12,59,15.40
2018,06,24,13,00,15.40
2018,06,24,13,01,15.40
2018,06,24,13,02,15.50
2018,06,24,13,03,15.50
2018,06,24,13,04,15.50
2018,06,24,13,05,15.50
2018,06,24,13,06,15.40
2018,06,24,13,07,15.30
2018,06,24,13,08,15.30
2018,06,24,13,09,15.30
2018,06,24,13,10,15.30
2018,06,24,13,11,15.20
2018,06,24,13,12,15.20
2018,06,24,13,13,15.20
2018,06,24,13,14,15.20
2018,06,24,13,15,15.20
2018,06,24,13,16,15.20
2018,06,24,13,17,15.20
2018,06,24,13,18,15.20
2018,06,24,13,19,15.20
2018,06,24,13,20,15.20
2018,06,24,13,21,15.10
2018,06,24,13,22,15.00
2018,06,24,13,23,15.00
2018,06,24,13,24,14.90
2018,06,24,13,25,14.90
2018,06,24,13,26,14.80
2018,06,24,13,27,14.80
2018,06,24,13,28,14.80
2018,06,24,13,29,14.80
2018,06,24,13,30,14.80
2018,06,24,13,31,14.80
2018,06,24,13,32,14.80
2018,06,24,13,33,14.80
2018,06,24,13,34,14.80
2018,06,24,13,35,14.80
2018,06,24,13,36,14.90
2018,06,24,13,37,14.90
2018,06,24,13,38,14.90
2018,06,24,13,39,14.90
2018,06,24,13,40,14.90
2018,06,24,13,41,14.90
2018,06,24,13,42,14.90
2018,06,24,13,43,14.90
2018,06,24,13,44,14.80
2018,06,24,13,45,14.80
2018,06,24,13,46,14.80
2018,06,24,13,47,14.70
2018,06,24,13,48,14.70
2018,06,24,13,49,14.70
2018,06,24,13,50,14.70
2018,06,24,13,51,14.80
2018,06,24,13,52,14.70
2018,06,24,13,53,14.70
2018,06,24,13,54,14.70
2018,06,24,13,55,14.70
2018,06,24,13,56,14.70
2018,06,24,13,57,14.70
2018,06,24,13,58,14.70
2018,06,24,13,59,14.60
2018,06,24,14,00,14.60
2018,06,24,14,01,14.60
2018,06,24,14,02,14.60
2018,06,24,14,03,14.60
2018,06,24,14,04,14.60
2018,06,24,14,05,14.70
2018,06,24,14,06,14.70
2018,06,24,14,07,14.60
2018,06,24,14,08,14.60
2018,06,24,14,09,14.60
2018,06,24,14,10,14.60
2018,06,24,14,11,14.60
2018,06,24,14,12,14.60
2018,06,24,14,13,14.60
2018,06,24,14,14,14.60
2018,06,24,14,15,14.50
2018,06,24,14,16,14.60
2018,06,24,14,17,14.60
2018,06,24,14,18,14.60
2018,06,24,14,19,14.60
2018,06,24,14,20,14.70
2018,06,24,14,21,14.70
2018,06,24,14,22,14.70
2018,06,24,14,23,14.70
2018,06,24,14,24,14.70
2018,06,24,14,25,14.70
2018,06,24,14,26,14.70
2018,06,24,14,27,14.60
2018,06,24,14,28,14.60
2018,06,24,14,29,14.60
2018,06,24,14,30,14.60
2018,06,24,14,31,14.50
2018,06,24,14,32,14.50
2018,06,24,14,33,14.50
2018,06,24,14,34,14.50
2018,06,24,14,35,14.50
2018,06,24,14,36,14.50
2018,06,24,14,37,14.60
2018,06,24,14,38,14.60
2018,06,24,14,39,14.60
2018,06,24,14,40,14.70
2018,06,24,14,41,14.70
2018,06,24,14,42,14.70
2018,06,24,14,43,14.70
2018,06,24,14,44,14.70
2018,06,24,14,45,14.70
2018,06,24,14,46,14.70
2018,06,24,14,47,14.70
2018,06,24,14,48,14.70
2018,06,24,14,49,14.70
2018,06,24,14,50,14.70
2018,06,24,14,51,14.70
2018,06,24,14,52,14.70
2018,06,24,14,53,14.70
2018,06,24,14,54,14.70
2018,06,24,14,55,14.70
2018,06,24,14,56,14.70
2018,06,24,14,57,14.80
2018,06,24,14,58,14.70
2018,06,24,14,59,14.80
2018,06,24,15,00,14.80
2018,06,24,15,01,14.70
2018,06,24,15,02,14.70
2018,06,24,15,03,14.70
2018,06,24,15,04,14.80
2018,06,24,15,05,14.80
2018,06,24,15,06,14.80
2018,06,24,15,07,14.80
2018,06,24,15,08,14.70
2018,06,24,15,09,14.70
2018,06,24,15,10,14.70
2018,06,24,15,11,14.70
2018,06,24,15,12,14.70
2018,06,24,15,13,14.70
2018,06,24,15,14,14.70
2018,06,24,15,15,14.70
2018,06,24,15,16,14.70
2018,06,24,15,17,14.80
2018,06,24,15,18,14.80
2018,06,24,15,19,14.80
2018,06,24,15,20,14.80
2018,06,24,15,21,14.80
2018,06,24,15,22,14.90
2018,06,24,15,23,14.90
2018,06,24,15,24,14.90
2018,06,24,15,25,14.90
2018,06,24,15,26,14.90
2018,06,24,15,27,14.90
2018,06,24,15,28,14.90
2018,06,24,15,29,14.80
2018,06,24,15,30,14.80
2018,06,24,15,31,14.80
2018,06,24,15,32,14.80
2018,06,24,15,33,14.80
2018,06,24,15,34,14.80
2018,06,24,15,35,14.80
2018,06,24,15,36,14.80
2018,06,24,15,37,14.70
2018,06,24,15,38,14.70
2018,06,24,15,39,14.70
2018,06,24,15,40,14.70
2018,06,24,15,41,14.70
2018,06,24,15,42,14.70
2018,06,24,15,43,14.70
2018,06,24,15,44,14.70
2018,06,24,15,45,14.70
2018,06,24,15,46,14.70
2018,06,24,15,47,14.80
2018,06,24,15,48,14.80
2018,06,24,15,49,14.80
2018,06,24,15,50,14.80
2018,06,24,15,51,14.70
2018,06,24,15,52,14.70
2018,06,24,15,53,14.70
2018,06,24,15,54,14.70
2018,06,24,15,55,14.70
2018,06,24,15,56,14.70
2018,06,24,15,57,14.70
2018,06,24,15,58,14.70
2018,06,24,15,59,14.70
2018,06,24,16,00,14.70
2018,06,24,16,01,14.80
2018,06,24,16,02,14.80
2018,06,24,16,03,14.80
2018,06,24,16,04,14.80
2018,06,24,16,05,14.80
2018,06,24,16,06,14.80
2018,06,24,16,07,14.80
2018,06,24,16,08,14.80
2018,06,24,16,09,14.80
2018,06,24,16,10,14.80
2018,06,24,16,11,14.80
2018,06,24,16,12,14.80
2018,06,24,16,13,14.80
2018,06,24,16,14,14.80
2018,06,24,16,15,14.80
2018,06,24,16,16,14.80
2018,06,24,16,17,14.70
2018,06,24,16,18,14.60
2018,06,24,16,19,14.50
2018,06,24,16,20,14.50
2018,06,24,16,21,14.40
2018,06,24,16,22,14.40
2018,06,24,16,23,14.30
2018,06,24,16,24,14.30
2018,06,24,16,25,14.30
2018,06,24,16,26,14.30
2018,06,24,16,27,14.20
2018,06,24,16,28,14.20
2018,06,24,16,29,14.20
2018,06,24,16,30,14.20
2018,06,24,16,31,14.10
2018,06,24,16,32,14.10
2018,06,24,16,33,14.10
2018,06,24,16,34,14.10
2018,06,24,16,35,14.10
2018,06,24,16,36,14.00
2018,06,24,16,37,14.00
2018,06,24,16,38,14.00
2018,06,24,16,39,13.90
2018,06,24,16,40,13.90
2018,06,24,16,41,13.90
2018,06,24,16,42,13.90
2018,06,24,16,43,13.90
2018,06,24,16,44,13.90
2018,06,24,16,45,13.90
2018,06,24,16,46,13.90
2018,06,24,16,47,13.90
2018,06,24,16,48,13.90
2018,06,24,16,49,13.90
2018,06,24,16,50,13.90
2018,06,24,16,51,13.90
2018,06,24,16,52,13.90
2018,06,24,16,53,13.90
2018,06,24,16,54,13.90
2018,06,24,16,55,13.90
2018,06,24,16,56,13.90
2018,06,24,16,57,13.90
2018,06,24,16,58,13.90
2018,06,24,16,59,13.90
2018,06,24,17,00,13.90
2018,06,24,17,01,13.90
2018,06,24,17,02,13.90
2018,06,24,17,03,13.90
2018,06,24,17,04,13.90
2018,06,24,17,05,13.90
2018,06,24,17,06,13.90
2018,06,24,17,07,13.90
2018,06,24,17,08,13.90
2018,06,24,17,09,13.90
2018,06,24,17,10,13.90
2018,06,24,17,11,13.90
2018,06,24,17,12,13.80
2018,06,24,17,13,13.90
2018,06,24,17,14,13.90
2018,06,24,17,15,13.90
2018,06,24,17,16,13.90
2018,06,24,17,17,13.90
2018,06,24,17,18,13.90
2018,06,24,17,19,13.90